Theta_e
300 301 303 310 316 316 313 310 308 308 304 302 302 301 301 297 298 295 293 294 295 294 294 294 292 292 288 286 285 284 284 286 285 281 281 280 279 278 277 276 275 274 274
298 302 306 308 310 310 306 303 302 301 298 298 296 294 293 294 293 294 294 295 294 292 290 291 284 282 282 282 283 283 283 283 284 282 280 279 279 277 276 275 274 274 273
300 301 300 301 300 298 297 296 296 294 293 293 294 293 293 292 292 291 293 293 291 290 284 282 281 282 281 282 282 282 281 281 281 281 280 278 277 276 275 274 273 273 272
296 294 293 293 293 293 292 293 293 292 292 292 293 292 293 292 292 292 290 288 284 281 281 281 281 281 281 281 281 280 280 279 278 278 277 277 276 275 274 274 273 273 272
291 290 290 289 290 291 290 291 291 290 289 289 289 289 289 289 289 288 284 281 280 280 280 280 280 281 280 280 280 279 278 278 277 277 276 276 275 274 273 272 272 272 272
289 289 290 289 289 288 287 287 287 286 286 287 285 286 286 285 284 282 281 280 280 279 280 280 280 281 280 279 278 278 277 277 276 276 275 275 274 273 272 272 272 272 271
287 287 286 285 285 284 284 284 284 284 285 284 284 284 283 282 282 282 280 280 280 280 279 279 279 280 279 278 277 277 276 275 274 274 274 274 273 272 272 272 271 270 270
284 284 284 284 284 284 283 283 283 284 283 283 282 282 282 281 281 280 280 279 279 278 278 278 278 278 277 276 276 275 274 273 273 273 273 273 272 272 272 270 269 269 268
283 283 283 283 283 283 283 283 283 283 282 282 282 282 281 281 281 280 280 279 278 278 278 278 278 278 277 277 276 275 274 273 272 272 272 271 271 270 269 269 269 268 268
283 283 283 283 283 283 283 283 283 282 282 282 281 281 281 281 280 280 280 279 278 278 277 277 277 277 278 277 275 274 273 273 272 272 271 270 270 269 268 267 266 267 266
283 283 283 283 283 283 282 282 282 281 281 281 281 281 280 280 280 280 280 280 278 278 277 277 277 277 277 274 273 272 273 272 271 270 269 269 269 268 267 266 265 265 265
283 283 283 283 283 282 282 281 281 281 280 280 280 280 280 280 280 280 280 280 279 278 276 275 276 275 274 273 271 272 272 270 270 269 268 268 267 267 266 265 265 264 263
281 281 281 281 281 281 280 280 280 280 280 280 280 280 280 280 280 280 280 279 277 276 274 274 275 273 271 270 270 270 270 269 268 268 268 267 267 266 265 264 264 263 263
283 282 282 281 280 280 280 280 280 280 280 280 280 280 279 278 278 277 277 276 275 274 274 273 271 270 270 270 270 269 269 268 268 267 267 266 265 265 264 263 262 262 262
281 280 280 280 280 280 280 280 280 280 280 280 280 279 278 277 276 275 275 274 274 273 272 271 270 269 269 269 269 269 269 268 267 266 265 265 264 264 263 263 262 262 261
280 280 280 280 279 279 279 279 279 280 280 280 281 281 279 279 276 275 274 274 273 272 271 270 270 269 269 269 269 268 268 267 266 266 265 264 264 264 263 263 262 261 261
281 280 280 280 279 279 279 280 279 279 279 279 279 278 278 277 277 276 275 275 274 272 270 270 270 270 269 269 268 267 267 267 266 265 264 264 263 263 262 262 262 261 261
281 281 280 280 279 279 279 279 280 280 279 279 278 278 278 278 277 276 274 272 271 270 270 270 270 269 269 268 268 267 267 266 266 265 264 263 263 262 262 262 262 261 261
281 280 280 280 279 279 279 279 279 279 279 277 277 277 277 277 276 274 274 272 271 270 270 270 270 269 269 268 268 267 267 266 265 264 264 263 263 262 261 261 260 259 258
281 282 281 281 280 279 279 278 278 278 277 276 275 276 276 275 274 273 272 271 270 269 269 269 269 269 269 268 267 267 266 265 264 264 264 263 262 261 260 260 259 259 260
282 281 281 281 280 279 278 278 278 277 277 276 276 276 276 275 273 272 272 271 271 270 270 269 269 269 269 268 267 266 266 265 265 264 263 263 262 261 261 259 259 258 258
281 281 281 280 280 280 279 278 278 277 277 276 276 277 276 273 274 273 272 271 270 270 269 269 269 269 268 268 267 266 265 265 265 264 263 262 262 261 260 258 258 258 258
281 281 282 282 282 281 280 278 277 277 276 276 276 275 275 274 272 273 273 272 271 270 269 268 268 269 269 268 267 266 265 265 265 264 263 262 262 261 259 259 259 258 258
283 283 282 282 281 280 279 278 277 276 276 276 275 275 275 274 274 274 273 272 270 269 268 268 268 268 268 267 267 266 266 266 265 266 265 264 262 261 259 259 259 259 259
283 283 282 281 279 279 279 278 277 276 276 275 275 275 275 274 274 273 273 271 269 268 268 268 268 268 267 267 266 266 266 266 267 267 265 263 263 263 262 261 260 260 260
280 279 279 279 279 279 278 277 276 276 275 275 275 274 274 273 273 272 271 269 268 268 268 267 267 267 267 266 266 266 268 268 268 267 266 265 264 263 263 263 263 261 261
Wind_Speed
16 16 13 11 28 28 27 28 28 29 27 29 30 30 32 28 36 32 33 36 37 36 33 28 24 21 19 16 14 11 10 9 12 7 8 9 6 3 4 6 8 9 10
15 12 14 23 27 28 27 26 25 26 27 30 31 30 31 35 30 35 38 38 37 33 30 30 26 23 20 19 16 14 12 9 11 14 10 6 4 2 4 7 7 10 11
11 13 21 24 25 26 26 25 26 28 32 33 34 35 33 33 37 35 41 40 37 34 30 31 26 22 18 15 14 12 12 12 9 11 8 4 2 2 5 6 9 12 12
16 18 20 22 27 30 30 30 31 31 33 35 37 38 40 38 40 39 39 39 35 32 29 27 23 18 18 15 14 13 12 13 10 10 8 4 1 3 6 9 11 11 17
24 25 27 25 29 36 33 38 37 34 34 39 43 41 43 40 41 41 38 38 34 31 27 25 20 18 17 14 13 13 12 10 8 8 6 3 0 4 6 8 12 16 20
27 27 31 34 29 33 37 39 41 40 38 41 36 41 43 39 37 35 37 35 31 29 29 26 22 20 19 18 17 13 10 9 8 6 4 2 1 3 6 10 13 17 10
29 28 30 34 32 32 38 40 36 42 41 41 41 45 39 33 32 31 33 31 29 27 24 20 18 19 18 17 15 13 12 9 6 4 3 1 2 4 8 13 14 16 19
31 31 33 36 33 35 40 37 37 44 38 36 36 36 34 28 29 31 30 28 25 20 18 17 18 16 14 12 10 9 7 5 4 3 3 1 3 7 10 13 16 18 20
30 32 32 34 35 36 39 34 36 42 36 33 31 33 30 27 28 30 29 27 22 19 18 16 15 13 12 11 9 7 5 3 3 1 1 5 9 11 12 12 13 15 17
30 32 36 36 38 36 34 33 35 36 34 29 30 27 27 26 23 25 25 25 20 19 15 15 13 11 10 9 7 5 3 2 1 4 7 10 13 14 15 13 11 13 14
31 34 35 35 37 36 35 31 30 31 30 27 27 24 23 22 20 20 20 20 20 17 14 12 10 10 10 8 5 4 3 3 4 8 11 13 13 13 13 13 13 12 15
30 31 30 30 30 31 36 30 29 29 27 23 25 24 20 18 16 14 14 16 15 16 13 12 11 10 8 7 5 5 4 5 8 10 11 11 13 14 14 14 15 17 19
29 27 28 28 27 24 24 24 22 21 21 19 19 18 16 16 14 12 12 13 12 13 13 12 12 9 8 7 5 4 5 7 9 11 11 12 13 16 20 19 18 19 21
29 27 26 26 24 22 22 21 22 20 17 17 17 17 15 15 16 14 13 12 13 13 14 13 10 8 7 5 4 6 7 9 11 11 12 14 16 17 17 14 14 14 18
24 22 20 20 19 19 17 15 17 15 13 15 14 15 15 12 12 14 15 15 15 13 13 11 9 8 6 5 6 8 9 11 11 11 12 13 14 15 16 14 14 14 17
19 16 14 15 15 15 15 13 9 10 9 11 14 14 13 13 16 15 14 13 13 14 10 9 7 6 6 7 8 10 11 11 11 12 14 13 15 15 16 15 14 15 17
16 15 14 14 14 13 13 13 14 10 9 11 12 10 10 13 12 10 10 11 10 9 6 7 7 7 7 9 10 12 13 14 16 16 15 16 15 16 17 16 15 16 17
12 13 12 12 12 12 11 10 11 12 13 10 7 7 8 11 10 10 9 9 9 10 10 9 8 9 10 11 12 15 17 17 17 17 17 18 18 17 17 17 16 17 17
10 9 8 9 10 10 10 10 9 9 10 10 13 12 13 12 11 11 12 13 11 11 11 12 12 12 13 14 16 18 19 20 19 20 20 20 20 18 19 18 18 19 18
10 10 10 10 11 12 12 12 12 11 11 12 12 12 17 15 14 16 16 16 16 15 15 16 16 16 16 17 18 20 21 20 20 19 20 21 21 20 19 19 18 19 19
12 11 11 10 10 11 11 12 12 12 13 15 16 16 16 17 15 17 19 21 21 20 20 20 19 19 20 20 21 21 22 24 24 24 23 22 22 23 22 20 19 19 20
11 10 10 11 11 12 14 14 15 15 15 16 16 18 18 19 21 22 23 24 24 23 22 22 22 22 22 23 24 24 26 29 29 27 24 26 25 24 22 20 20 20 19
12 12 12 13 14 15 16 17 17 18 18 19 18 19 20 21 22 24 25 25 24 24 23 23 24 25 25 26 26 26 28 29 29 28 28 26 26 25 21 20 20 21 21
14 15 15 15 16 16 17 17 18 20 20 20 21 23 24 25 26 27 26 26 25 25 24 24 25 26 27 27 27 28 28 28 27 27 27 27 29 27 24 23 25 24 24
18 18 18 18 18 19 19 20 21 22 22 23 24 25 25 26 26 26 26 25 24 25 25 25 26 27 27 27 27 27 26 25 27 27 27 28 30 29 29 28 29 26 26
19 20 21 21 22 22 22 21 22 22 24 24 25 25 24 24 25 24 24 23 24 25 25 26 26 26 27 27 27 25 27 28 27 26 27 31 32 32 32 31 31 30 30
Wind_Direction
261 259 256 232 176 186 185 184 186 187 186 182 179 177 171 163 161 154 145 150 149 146 144 143 137 138 135 137 135 129 116 106 127 123 141 159 166 189 281 307 311 315 315
253 256 206 172 169 169 169 169 172 168 168 163 157 149 148 149 145 148 143 144 143 138 134 131 130 136 123 120 120 110 105 101 129 138 148 155 172 222 296 313 309 311 317
237 190 161 157 154 148 148 149 150 147 143 141 143 140 136 133 133 135 142 141 139 133 130 135 132 127 115 112 109 103 99 93 94 131 135 143 157 278 315 313 316 318 315
128 118 115 125 133 133 134 134 133 133 134 136 133 136 137 139 139 139 134 128 119 131 133 125 125 121 118 116 111 109 104 100 106 113 109 127 180 285 325 318 318 321 318
95 95 96 102 113 119 118 120 121 120 118 120 126 126 126 134 134 132 122 124 129 125 121 116 115 120 118 119 120 109 114 118 119 120 122 128 219 318 316 318 319 321 314
83 87 97 100 96 105 108 109 114 112 112 115 111 116 119 116 113 121 131 127 126 120 111 109 109 103 106 105 103 110 116 123 125 126 127 130 259 316 325 324 320 324 324
77 84 89 95 91 96 101 102 102 103 105 105 105 107 106 113 120 129 134 129 124 120 119 124 117 121 120 117 114 110 104 100 90 106 107 81 322 332 327 320 309 297 290
75 79 84 90 97 97 96 98 99 101 102 102 103 108 109 113 120 131 133 128 120 121 123 127 127 135 143 138 125 126 125 89 81 97 115 134 336 317 303 297 297 295 294
75 78 84 91 92 93 95 102 102 101 100 101 109 111 113 121 130 137 138 132 123 118 123 131 135 134 141 137 139 140 118 91 85 127 287 294 291 294 293 298 295 301 307
83 86 90 91 91 93 97 96 100 106 109 114 109 113 119 123 132 139 140 135 126 125 126 131 129 132 140 161 152 136 123 155 214 293 299 299 299 300 298 287 282 282 291
92 95 96 100 102 104 103 104 108 108 110 109 109 111 117 127 131 142 149 148 145 142 138 134 135 143 150 146 143 142 184 211 289 303 302 306 309 308 305 295 282 267 268
94 94 96 100 105 111 116 116 115 115 113 114 111 108 114 121 126 139 156 158 152 146 147 152 153 153 142 159 174 178 205 306 304 303 307 309 305 304 302 294 287 275 265
85 82 89 99 104 106 109 112 110 111 111 112 114 116 119 122 129 137 139 140 151 147 153 154 153 164 182 190 200 238 289 295 302 305 304 300 297 296 297 295 292 287 280
104 106 113 112 113 116 117 121 123 125 130 136 140 141 141 142 146 139 137 140 145 146 147 161 176 191 203 219 248 274 293 302 300 294 288 290 293 296 294 290 285 286 284
116 118 116 119 121 123 124 134 143 145 152 154 156 153 151 157 166 168 165 168 173 176 174 180 193 209 231 261 282 293 299 303 302 292 284 285 285 285 285 285 278 278 271
117 117 119 121 121 121 119 108 117 147 159 167 166 166 171 181 171 176 183 186 183 186 189 201 216 233 254 281 299 303 303 298 291 288 284 280 280 283 284 281 275 271 275
133 136 139 140 142 142 141 139 130 119 139 161 171 175 180 172 171 173 173 175 184 199 218 225 233 252 273 285 293 295 295 294 295 294 289 286 283 281 280 281 280 276 278
147 151 154 159 162 162 163 161 159 159 157 158 162 164 172 177 186 191 190 190 205 226 232 242 256 267 277 285 290 294 296 296 295 292 290 289 285 282 284 283 281 279 282
161 164 165 169 175 180 180 181 183 180 180 179 181 193 185 200 208 209 212 225 235 245 249 253 260 267 276 285 292 293 292 289 288 288 288 287 286 281 279 278 278 276 277
185 189 187 190 193 195 199 200 201 200 199 202 208 209 206 210 211 222 229 241 247 253 258 261 265 273 282 288 291 292 291 291 291 288 288 287 284 279 274 277 277 279 277
196 203 207 210 215 219 221 221 223 222 221 222 228 231 231 231 237 238 244 249 253 255 258 264 270 276 281 286 289 290 291 290 289 290 289 286 285 281 282 279 277 276 276
211 220 229 233 236 236 238 237 236 236 238 242 245 246 239 239 247 252 253 253 254 256 259 264 271 278 284 289 291 290 290 291 294 295 289 290 288 283 280 275 276 275 276
228 235 240 243 246 251 249 245 245 246 248 252 254 254 252 247 249 255 258 259 259 262 265 268 273 280 285 288 289 290 289 291 296 296 291 289 284 280 276 273 273 271 270
240 243 248 255 258 259 257 256 255 255 255 257 257 256 255 256 257 259 262 263 263 265 267 271 275 281 286 289 292 293 294 296 297 294 291 288 287 284 281 278 278 273 270
240 242 245 248 251 253 256 256 255 256 256 256 257 259 261 262 263 264 265 265 265 267 270 275 280 285 289 292 292 293 296 298 294 295 292 287 286 287 285 282 280 274 272
242 246 248 251 253 255 255 256 257 259 259 262 263 263 265 267 268 269 269 268 269 271 275 278 283 287 291 292 294 297 297 299 298 299 297 290 286 282 283 281 281 274 274